Location: Brookfield Center
(41.2406°N, 80.5579°W)
Time: 11:07:38
(UTC+00:00)

ADEOS Rocket - Pass Details

Date: 18 January 2020
Orbit: 859 x 1306 km, 98.7° (Epoch: 19 February)

Event Time Altitude Azimuth Distance (km) Brightness Sun altitude
Rises 11:33:53 0° 165° (SSE) 3,462 6.3 -13.2°
Reaches altitude 10° 11:36:16 10° 165° (SSE) 2,505 5.6 -12.7°
Maximum altitude 11:41:46 89° 256° (WSW) 866 2.7 -11.7°
Drops below altitude 10° 11:47:20 10° 346° (NNW) 2,537 4.9 -10.7°
Sets 11:49:46 0° 347° (NNW) 3,509 5.6 -10.3°
